Tracking 29892 objects as of 21-Nov-2024
HD Live streaming from Space Station
objects crossing your sky now

STARLINK-6321

Track STARLINK-6321 now!
10-day predictions
STARLINK-6321 is classified as:


NORAD ID: 57340
Int'l Code: 2023-099N
Perigee: 565.8 km
Apogee: 566.6 km
Inclination: 43.0 °
Period: 95.8 minutes
Semi major axis: 6937 km
RCS: Unknown
Launch date: July 16, 2023
Source: United States (US)
Launch site: AIR FORCE EASTERN TEST RANGE (AFETR)
Your satellite tracking list
Your tracking list is empty




NASA's NSSDC Master Catalog

Two Line Element Set (TLE):
1 57340U 23099N   24325.94154293  .00000208  00000-0  30478-4 0  9991
2 57340  43.0004 303.0920 0000615 285.5564  74.5210 15.02537950 75598
Source of the keplerian elements: AFSPC